Date String (YYYY-MM-DD hh:mm:ss) UTC,Instrument flags,Ambient pressure (hPa),Sample flow (lpm),Bypass flow (lpm),Sample temperature (°C),Ambient temperature (°C),ASC tube jacket temperature (°C),LED temperature (°C),Box temperature (°C),Sample RH (%),Span deviation,Mass concentration (μg/m³),Mass concentration (μg/m³),Mass concentration (μg/m³)
DateTimeUTC,F1_M11,P_M11,Q1_M11,Q2_M11,T1_M11,T2_M11,T3_M11,T4_M11,T5_M11,U1_M11,ZSPAN_M11,X0_M11,X2_M11,X1_M11
2022-03-20 10:00:00,,0819.9,5.00,0.00,24.2,23.3,00.0,33.3,26.0,08.2,0000.0,0011.64,0004.71,0002.84
2022-03-20 10:01:00,,0819.9,5.00,0.00,24.2,23.3,00.0,33.3,26.0,08.2,0000.0,0011.90,0004.68,0002.82
2022-03-20 10:02:00,,0820.0,5.01,0.00,24.2,23.3,00.0,33.3,26.0,08.2,0000.0,0011.84,0004.65,0002.82
2022-03-20 10:03:00,,0820.1,4.99,0.00,24.2,23.3,00.0,33.3,26.0,08.2,0000.0,0011.89,0004.67,0002.81
2022-03-20 10:04:00,,0820.1,5.01,0.00,24.2,23.3,00.0,33.3,25.9,08.2,0000.0,0011.94,0004.66,0002.80
2022-03-20 10:05:00,,0820.1,5.00,0.00,24.2,23.3,00.0,33.3,25.9,08.2,0000.0,0012.30,0004.69,0002.82
2022-03-20 10:06:00,,0820.0,4.99,0.00,24.1,23.2,00.0,33.3,25.9,08.3,0000.0,0012.31,0004.73,0002.84
2022-03-20 10:07:00,,0820.0,5.02,0.00,24.1,23.1,00.0,33.2,25.8,08.3,0000.0,0012.39,0004.73,0002.86
2022-03-20 10:08:00,,0819.9,4.99,0.00,24.1,23.1,00.0,33.2,25.7,08.3,0000.0,0012.55,0004.75,0002.89
2022-03-20 10:09:00,,0819.9,4.99,0.00,24.1,23.0,00.0,33.2,25.7,08.3,0000.0,0012.67,0004.72,0002.91
2022-03-20 10:10:00,,0819.9,5.01,0.00,24.0,23.0,00.0,33.2,25.7,08.4,0000.0,0012.26,0004.69,0002.93
2022-03-20 10:11:00,,0819.9,5.00,0.00,24.0,23.0,00.0,33.2,25.6,08.4,0000.0,0011.87,0004.70,0002.96
2022-03-20 10:12:00,,0819.9,5.00,0.00,24.0,23.1,00.0,33.2,25.7,08.4,0000.0,0012.01,0004.70,0002.94
2022-03-20 10:13:00,,0819.9,5.01,0.00,24.0,23.1,00.0,33.2,25.7,08.4,0000.0,0012.19,0004.76,0002.95
2022-03-20 10:14:00,,0819.9,4.99,0.00,24.0,23.1,00.0,33.1,25.7,08.4,0000.0,0012.09,0004.73,0002.95
2022-03-20 10:15:00,,0819.9,4.99,0.00,24.0,23.1,00.0,33.1,25.7,08.4,0000.0,0011.99,0004.74,0002.98
2022-03-20 10:16:00,,0820.0,5.00,0.00,24.0,23.2,00.0,33.1,25.7,08.4,0000.0,0011.64,0004.77,0002.99
2022-03-20 10:17:00,,0819.9,5.02,0.00,24.0,23.2,00.0,33.1,25.7,08.4,0000.0,0011.61,0004.75,0002.99
2022-03-20 10:18:00,,0819.9,5.00,0.00,24.0,23.2,00.0,33.1,25.7,08.4,0000.0,0011.38,0004.71,0002.99
2022-03-20 10:19:00,,0819.9,5.00,0.00,24.0,23.1,00.0,33.1,25.7,08.4,0000.0,0011.42,0004.77,0002.98
2022-03-20 10:20:00,,0819.9,4.99,0.00,24.0,23.1,00.0,33.1,25.6,08.4,0000.0,0011.32,0004.80,0002.98
2022-03-20 10:21:00,,0819.9,5.00,0.00,24.0,23.1,00.0,33.1,25.7,08.4,0000.0,0011.35,0004.83,0002.98
2022-03-20 10:22:00,,0819.9,5.01,0.00,24.0,23.0,00.0,33.1,25.6,08.2,0000.0,0010.99,0004.83,0002.98
2022-03-20 10:23:00,,0819.9,5.00,0.00,24.0,23.0,00.0,33.1,25.7,07.9,0000.0,0010.77,0004.88,0003.00
2022-03-20 10:24:00,,0819.9,5.00,0.00,24.0,23.1,00.0,33.1,25.7,07.8,0000.0,0011.07,0004.85,0002.98
2022-03-20 10:25:00,,0819.9,5.01,0.00,24.0,23.1,00.0,33.1,25.7,07.6,0000.0,0011.16,0004.87,0002.97
2022-03-20 10:26:00,,0819.9,5.01,0.00,24.0,23.1,00.0,33.1,25.7,07.6,0000.0,0011.37,0004.84,0002.94
2022-03-20 10:27:00,,0819.9,4.99,0.00,24.0,23.1,00.0,33.1,25.7,07.8,0000.0,0011.38,0004.80,0002.90
2022-03-20 10:28:00,,0820.0,5.01,0.00,24.0,23.1,00.0,33.1,25.7,07.6,0000.0,0011.31,0004.77,0002.85
2022-03-20 10:29:00,,0819.9,4.99,0.00,24.0,23.1,00.0,33.1,25.7,08.0,0000.0,0011.53,0004.82,0002.81
2022-03-20 10:30:00,,0819.9,4.98,0.00,24.0,23.1,00.0,33.1,25.7,07.8,0000.0,0011.52,0004.81,0002.78
2022-03-20 10:31:00,,0819.9,5.00,0.00,24.0,23.1,00.0,33.1,25.7,07.7,0000.0,0011.48,0004.75,0002.75
2022-03-20 10:32:00,,0819.9,5.01,0.00,24.0,23.1,00.0,33.1,25.7,07.7,0000.0,0011.61,0004.67,0002.72
2022-03-20 10:33:00,,0819.9,5.00,0.00,24.0,23.1,00.0,33.0,25.7,07.7,0000.0,0011.57,0004.64,0002.71
2022-03-20 10:34:00,,0819.9,5.00,0.00,24.0,23.1,00.0,33.0,25.8,07.6,0000.0,0011.37,0004.61,0002.67
2022-03-20 10:35:00,,0819.9,4.99,0.00,24.0,23.1,00.0,33.0,25.8,07.6,0000.0,0010.73,0004.53,0002.65
2022-03-20 10:36:00,,0819.9,5.00,0.00,24.0,23.2,00.0,33.0,25.8,07.6,0000.0,0010.78,0004.51,0002.64
2022-03-20 10:37:00,,0819.8,5.02,0.00,24.0,23.2,00.0,33.0,25.9,07.6,0000.0,0010.41,0004.46,0002.62
2022-03-20 10:38:00,,0819.8,5.00,0.00,24.1,23.1,00.0,33.0,25.9,07.6,0000.0,0010.20,0004.43,0002.63
2022-03-20 10:39:00,,0819.9,4.99,0.00,24.1,23.2,00.0,33.0,25.9,07.6,0000.0,0010.13,0004.39,0002.63
2022-03-20 10:40:00,,0820.0,4.99,0.00,24.1,23.2,00.0,33.0,25.9,07.6,0000.0,0010.54,0004.39,0002.64
2022-03-20 10:41:00,,0819.9,4.99,0.00,24.1,23.2,00.0,33.0,25.9,07.6,0000.0,0010.57,0004.34,0002.64
2022-03-20 10:42:00,,0819.9,5.01,0.00,24.1,23.1,00.0,33.0,25.9,07.6,0000.0,0011.26,0004.29,0002.63
2022-03-20 10:43:00,,0819.9,5.00,0.00,24.0,23.1,00.0,33.0,25.7,07.7,0000.0,0010.93,0004.31,0002.63
2022-03-20 10:44:00,,0819.9,4.99,0.00,24.0,23.1,00.0,33.0,25.7,07.8,0000.0,0011.34,0004.36,0002.63
2022-03-20 10:45:00,,0819.9,5.00,0.00,24.0,23.1,00.0,33.0,25.7,07.9,0000.0,0011.33,0004.34,0002.64
2022-03-20 10:46:00,,0819.9,5.00,0.00,24.0,23.0,00.0,33.0,25.7,07.8,0000.0,0011.33,0004.35,0002.66
2022-03-20 10:47:00,,0819.9,4.99,0.00,24.0,23.0,00.0,33.0,25.7,07.7,0000.0,0011.35,0004.35,0002.65
2022-03-20 10:48:00,,0819.9,5.01,0.00,24.0,23.0,00.0,33.0,25.7,07.6,0000.0,0011.37,0004.37,0002.67
2022-03-20 10:49:00,,0819.9,4.99,0.00,24.0,23.1,00.0,33.0,25.7,07.7,0000.0,0011.37,0004.35,0002.65
2022-03-20 10:50:00,,0819.9,4.99,0.00,24.0,23.0,00.0,33.0,25.6,07.7,0000.0,0011.67,0004.42,0002.63
2022-03-20 10:51:00,,0819.9,5.01,0.00,24.0,23.1,00.0,33.0,25.7,07.6,0000.0,0011.09,0004.39,0002.60
2022-03-20 10:52:00,,0819.9,5.00,0.00,24.0,23.1,00.0,33.0,25.7,07.6,0000.0,0010.81,0004.40,0002.59
2022-03-20 10:53:00,,0819.9,5.00,0.00,24.0,23.1,00.0,33.0,25.7,07.6,0000.0,0010.01,0004.38,0002.58
2022-03-20 10:54:00,,0820.0,5.00,0.00,24.0,23.1,00.0,33.0,25.7,07.6,0000.0,0010.08,0004.40,0002.56
2022-03-20 10:55:00,,0820.0,5.02,0.00,24.0,23.1,00.0,33.0,25.7,07.5,0000.0,0009.63,0004.32,0002.52
2022-03-20 10:56:00,,0820.0,5.00,0.00,24.0,23.1,00.0,33.0,25.7,07.5,0000.0,0010.07,0004.35,0002.50
2022-03-20 10:57:00,,0820.0,4.98,0.00,24.0,23.1,00.0,33.0,25.7,07.6,0000.0,0010.44,0004.39,0002.49
2022-03-20 10:58:00,,0820.0,5.02,0.00,24.0,23.1,00.0,33.0,25.6,07.8,0000.0,0010.37,0004.41,0002.50
2022-03-20 10:59:00,,0819.9,5.00,0.00,24.0,23.1,00.0,33.0,25.6,07.8,0000.0,0010.45,0004.43,0002.49
